This demonstration page uses our WeatherBlox Daily Observations layout. Learn more.

Left ArrowRight Arrow

Hourly Observations for April 26, 2021

Temp ( °F °C ) Dew Point ( °F °C ) Humidity (%) Winds ( mph kmh ) Pressure ( in mb ) Visibility ( mi km ) Precip ( " mm )
12:53 am 00:53 Clear 50 10 46 7.8 86 86 Calm 30.03 1017 10 16 0.00 0.00
1:53 am 01:53 Clear 50 10 46 7.8 86 86 Calm 30.03 1017 10 16 0.00 0.00
2:53 am 02:53 Clear 48 8.9 45 7.2 89 89 Calm 30.03 1017 10 16 0.00 0.00
3:53 am 03:53 Clear 48 8.9 46 7.8 93 93 Calm 30.04 1017 10 16 0.00 0.00
4:53 am 04:53 Clear 47 8.3 45 7.2 93 93 NNE 3 6 30.04 1017 10 16 0.00 0.00
5:53 am 05:53 Clear 48 8.9 45 7.2 89 89 NE 3 6 30.05 1018 10 16 0.00 0.00
6:53 am 06:53 Clear 47 8.3 45 7.2 93 93 ENE 3 6 30.08 1019 10 16 0.00 0.00
7:53 am 07:53 Sunny 51 10.6 48 8.9 89 89 NNE 5 7 30.10 1019 10 16 0.00 0.00
8:53 am 08:53 Sunny 59 15 49 9.4 69 69 NNE 7 11 30.11 1020 10 16 0.00 0.00
9:53 am 09:53 Sunny 65 18.3 44 6.7 47 47 E 9 15 30.12 1020 10 16 0.00 0.00
10:53 am 10:53 Sunny 68 20 44 6.7 42 42 ESE 9 15 30.14 1021 10 16 0.00 0.00
11:53 am 11:53 Sunny 70 21.1 47 8.3 44 44 SSE 12 19 30.14 1021 10 16 0.00 0.00
12:53 pm 12:53 Sunny 73 22.8 48 8.9 41 41 SE 12 19 30.13 1020 10 16 0.00 0.00
1:53 pm 13:53 Sunny 74 23.3 48 8.9 40 40 S 10 17 30.11 1020 10 16 0.00 0.00
2:53 pm 14:53 Sunny 76 24.4 48 8.9 37 37 SSE 8 13 30.10 1019 10 16 0.00 0.00
3:53 pm 15:53 Sunny 77 25 50 10 39 39 S 9 15 30.08 1019 10 16 0.00 0.00
4:53 pm 16:53 Sunny 78 25.6 49 9.4 36 36 SSE 8 13 30.06 1018 10 16 0.00 0.00
5:53 pm 17:53 Sunny 78 25.6 49 9.4 36 36 SSW 8 13 30.06 1018 10 16 0.00 0.00
6:53 pm 18:53 Sunny 78 25.6 50 10 37 37 SSE 9 15 30.06 1018 10 16 0.00 0.00
7:53 pm 19:53 Sunny 75 23.9 51 10.6 43 43 S 6 9 30.06 1018 10 16 0.00 0.00
8:53 pm 20:53 Clear 72 22.2 52 11.1 50 50 SE 3 6 30.07 1018 10 16 0.00 0.00
9:53 pm 21:53 Clear 64 17.8 54 12.2 70 70 Calm 30.09 1019 10 16 0.00 0.00
10:53 pm 22:53 Clear 69 20.6 54 12.2 59 59 SSE 5 7 30.09 1019 10 16 0.00 0.00
11:53 pm 23:53 Clear 61 16.1 55 12.8 81 81 Calm 30.10 1019 10 16 0.00 0.00

Powered by AerisWeather